EST,Max TemperatureF,Mean TemperatureF,Min TemperatureF,Max Dew PointF,MeanDew PointF,Min DewpointF,Max Humidity, Mean Humidity, Min Humidity, Max Sea Level PressureIn, Mean Sea Level PressureIn, Min Sea Level PressureIn, Max VisibilityMiles, Mean VisibilityMiles, Min VisibilityMiles, Max Wind SpeedMPH, Mean Wind SpeedMPH, Max Gust SpeedMPH,PrecipitationIn, CloudCover, Events, WindDirDegrees
2012-12-1,61,47,32,49,41,30,89,75,60,30.19,30.09,29.97,10,8,2,23,10,31,0.00,4,,155
2012-12-2,60,52,43,54,49,42,100,79,57,30.10,30.01,29.92,10,5,0,20,7,26,0.12,7,Fog-Rain,229
2012-12-3,65,56,47,59,55,48,100,87,73,30.08,29.99,29.87,10,4,0,28,12,37,0.01,7,Fog,171
2012-12-4,64,52,39,57,44,31,93,70,46,30.23,30.04,29.91,10,8,2,23,10,31,0.75,5,Rain,279
2012-12-5,42,36,29,30,24,21,78,65,52,30.45,30.37,30.26,10,10,10,18,7,23,0.00,0,,54
2012-12-6,42,36,30,36,28,22,75,70,64,30.28,30.12,29.96,10,10,10,20,9,22,T,2,Rain,153
2012-12-7,46,44,41,45,41,36,100,90,79,29.98,29.93,29.87,10,4,1,12,3,13,0.10,8,Rain,27
2012-12-8,43,39,34,43,36,28,100,88,75,30.14,29.95,29.83,10,7,2,15,6,17,0.06,8,Rain,20
2012-12-9,43,39,34,39,31,28,100,88,75,30.14,29.91,29.69,10,7,0,20,10,24,0.04,8,Fog-Rain,115
2012-12-10,41,36,31,33,30,27,92,87,82,29.92,29.76,29.68,10,6,0,22,11,25,0.02,8,Fog-Rain-Snow,266
2012-12-11,33,30,26,29,25,21,92,77,61,30.19,30.02,29.91,10,8,1,20,10,26,0.14,4,Snow,233
2012-12-12,43,34,24,25,23,20,88,69,49,30.36,30.31,30.20,10,10,10,16,9,21,0.00,0,,195
2012-12-13,47,39,30,25,24,23,72,57,42,30.35,30.29,30.16,10,10,10,21,11,26,0.00,0,,200
2012-12-14,49,39,29,30,27,23,78,62,46,30.26,30.20,30.13,10,10,10,10,6,14,0.00,0,,174
2012-12-15,51,43,35,48,39,29,93,75,57,30.11,29.82,29.64,10,8,2,20,11,26,0.14,7,Rain,164
2012-12-16,51,45,39,48,42,35,93,86,79,29.73,29.65,29.61,10,9,4,17,10,23,0.01,8,Rain,241
2012-12-17,41,39,36,34,34,32,85,79,73,29.75,29.72,29.66,10,8,4,12,5,14,0.00,8,,270
2012-12-18,39,34,29,36,31,25,89,82,75,29.82,29.73,29.66,10,7,2,18,7,23,0.02,7,Rain-Snow,187
2012-12-19,43,40,37,38,35,33,92,83,73,30.08,29.98,29.72,9,6,4,18,6,23,T,7,Rain,120
2012-12-20,51,42,33,48,38,32,100,90,79,29.90,29.37,29.09,10,5,1,32,18,44,1.03,8,Rain-Snow,154
2012-12-21,36,34,31,32,28,24,96,83,69,30.09,29.66,29.20,10,6,1,40,27,52,0.45,8,Rain-Snow,321
2012-12-22,32,27,22,24,21,18,84,76,68,30.21,30.13,30.03,10,10,9,22,10,26,0.00,5,,246
2012-12-23,36,27,17,25,21,14,84,74,64,30.05,29.99,29.93,10,9,7,14,3,16,0.00,4,,35
2012-12-24,34,30,26,27,24,20,85,77,69,30.07,29.93,29.84,10,10,10,13,6,17,0.00,5,,39
2012-12-25,34,26,18,21,19,15,88,72,56,30.31,30.24,30.09,10,10,7,14,7,18,0.00,2,,39
2012-12-26,30,28,25,25,22,18,85,77,68,30.22,30.00,29.89,10,6,0,23,15,33,0.18,8,Fog-Snow,14
2012-12-27,33,29,24,25,21,18,81,74,66,30.19,30.13,30.02,10,10,10,20,4,24,0.00,8,,353
2012-12-28,31,29,26,27,25,23,92,85,78,30.16,30.07,29.90,10,7,0,13,6,16,0.10,7,Fog-Snow,147
2012-12-29,31,30,28,27,26,23,92,85,78,30.19,29.95,29.84,10,3,0,20,7,26,0.14,8,Fog-Snow,289
2012-12-30,28,22,15,21,16,11,88,78,68,30.40,30.30,30.20,10,8,3,21,10,25,0.00,3,,215
2012-12-31,36,32,27,27,23,19,78,71,64,30.17,30.07,30.00,10,10,9,22,13,28,0.00,5,,259